Home   Weather   Bülach   Past weeks

Flag for Switzerland Past Weather in Bülach, Zurich, Switzerland — Yesterday and Last 2 Weeks

43 °F


Feels Like: 43 °F
Forecast: 30 / 51 °F
Wind: 1 mph from North

Location: Zurich-Kloten

Current Time: Oct 22, 2016 at 7:52:41 PM

Latest Report: Oct 22, 2016 at 7:20 PM

Visibility: 10 mi

Pressure: 29.95 "Hg

Humidity: 81%

Dew Point: 37 °F

Location of BülachLocation

Past Weather in Bülach — Graph


Bülach Temperature Yesterday

Maximum temperature yesterday: 46 °F (at 2:20 PM)
Minimum temperature yesterday: 41 °F (at 12:50 AM)
Average temperature yesterday: 44 °F

High & Low Weather Summary for the Past Weeks

High61 °F (Oct 15, 3:50 PM)100% (Oct 8, 9:50 PM)30.27 "Hg (Oct 8, 9:50 PM)
Low32 °F (Oct 13, 2:50 AM)54% (Oct 12, 3:50 PM)29.62 "Hg (Oct 14, 5:50 PM)
Average46 °F86%30.06 "Hg
* Reported Oct 7 6:20 PM — Oct 22 6:50 PM, Bülach, Weather by CustomWeather, © 2016

Note: Actual official high and low records may vary slightly from our data, if they occured in-between our weather recording intervals... More about our weather records


Bülach Weather History for the Previous 24 Hours

Scroll right to see more
Time TempWeatherWind HumidityBarometerVisibility
6:50 PM
Sat, Oct 22
45 °FClear.3 mph81%29.95 "Hg10 mi
6:20 PM48 °FSunny.2 mph66%29.95 "Hg10 mi
5:50 PM48 °FSunny.No wind66%29.95 "Hg10 mi
5:20 PM48 °FSunny.1 mph66%29.92 "Hg10 mi
4:50 PM50 °FSunny.2 mph62%29.95 "Hg10 mi
4:20 PM50 °FSunny.2 mph62%29.95 "Hg10 mi
3:50 PM48 °FScattered clouds.2 mph66%29.95 "HgN/A
3:20 PM50 °FScattered clouds.3 mph62%29.95 "HgN/A
2:50 PM48 °FScattered clouds.3 mph62%29.95 "HgN/A
2:20 PM48 °FScattered clouds.3 mph71%29.98 "HgN/A
1:50 PM46 °FScattered clouds.3 mph76%29.98 "HgN/A
1:20 PM45 °FPassing clouds.5 mph93%29.98 "Hg4 mi
12:50 PM43 °FFog.5 mph100%29.98 "Hg3 mi
12:20 PM41 °FFog.2 mph100%29.98 "Hg2 mi
11:50 AM41 °FQuite cool.3 mph100%29.98 "Hg1 mi
11:20 AM39 °FBroken clouds.1 mph100%29.98 "Hg1 mi
10:50 AM39 °FDense fog.5 mph100%29.98 "Hg0 mi
10:20 AM37 °FDense fog.3 mph100%30.01 "Hg0 mi
9:50 AM37 °FFog.5 mph100%30.01 "Hg0 mi
9:20 AM37 °FFog.2 mph100%30.01 "Hg0 mi
8:50 AM36 °FFog.2 mph100%30.01 "Hg0 mi
8:20 AM36 °FFog.2 mph100%30.01 "Hg0 mi
7:50 AM36 °FFog.2 mph100%29.98 "Hg0 mi
7:20 AM36 °FFog.1 mph100%29.98 "Hg0 mi
6:50 AM34 °FFog.2 mph100%29.98 "Hg0 mi
6:20 AM34 °FFog.No wind100%29.98 "Hg0 mi
5:50 AM34 °FFog.1 mph100%29.98 "Hg0 mi
5:20 AM34 °FFog.3 mph100%29.98 "Hg0 mi
4:50 AM34 °FFog.5 mph93%29.98 "Hg0 mi
4:20 AM34 °FDense fog.No wind100%29.98 "Hg1 mi
3:50 AM36 °FDense fog.2 mph100%30.01 "Hg1 mi
3:20 AM37 °FChilly.1 mph100%30.01 "Hg1 mi
1:50 AM39 °FChilly.1 mph100%30.01 "Hg3 mi
1:20 AM41 °FFog.2 mph93%30.01 "Hg3 mi
12:50 AM43 °FPassing clouds.No wind87%30.01 "Hg5 mi
12:20 AM43 °FPassing clouds.2 mph87%30.04 "Hg5 mi
11:50 PM
Fri, Oct 21
43 °FPassing clouds.3 mph93%30.04 "Hg5 mi
11:20 PM45 °FPassing clouds.3 mph87%30.04 "Hg5 mi
10:50 PM43 °FPartly cloudy.2 mph93%30.04 "Hg5 mi
10:20 PM45 °FPartly cloudy.1 mph87%30.04 "HgN/A
9:50 PM43 °FPassing clouds.3 mph93%30.04 "HgN/A
9:20 PM45 °FPartly cloudy.2 mph87%30.04 "HgN/A
8:50 PM45 °FPartly cloudy.2 mph87%30.04 "HgN/A
8:20 PM45 °FPartly cloudy.2 mph87%30.01 "HgN/A
7:50 PM45 °FPartly cloudy.1 mph93%30.01 "HgN/A
7:20 PM45 °FPassing clouds.2 mph93%30.01 "HgN/A
Weather by CustomWeather, © 2016

See weather overviewHow to use our weather pages